Akron Canton, OH

11:20 AM EST on January 17, 2018 (GMT -0500)
Akron-Canton Regional

Weather History for KCAK - June, 2012

Change the Weather History Date:

Tuesday, June 12, 2012

  Actual Average Record
Temperature  
Mean Temperature 75 °F 67 °F  
Max Temperature 88 °F 77 °F 91 °F (1961)
Min Temperature 62 °F 57 °F 40 °F (1906)
Degree Days  
Heating Degree Days 0 2  
Month to date heating degree days 24 33  
Since 1 June heating degree days 24 33  
Since 1 July heating degree days 4845 6134  
Cooling Degree Days 10 4  
Month to date cooling degree days 46 37  
Year to date cooling degree days 192 79  
Since 1 June cooling degree days 46 37  
Growing Degree Days 28 (Base 50)    
Moisture  
Dew Point 61 °F    
Average Humidity 63    
Maximum Humidity 90    
Minimum Humidity 36    
Precipitation  
Precipitation 0.01 in 0.12 in 1.50 in (1960)
Month to date precipitation 0.39 1.53  
Year to date precipitation 12.71 17.26  
Snow  
Snow 0.00 in 0.00 in - ()
Month to date snowfall 0.0 0.0  
Since 1 June snowfall 0.0 0.0  
Since 1 July snowfall 31.0 47.5  
Snow Depth 0.00 in    
Sea Level Pressure  
Sea Level Pressure 29.89 in    
Wind  
Wind Speed 11 mph (WSW)    
Max Wind Speed 21 mph    
Max Gust Speed 25 mph    
Visibility 6 miles    
Events Rain    
T = Trace of Precipitation, MM = Missing Value Source: NWS Daily Summary

Daily Weather History Graph

Daily Weather History Graph

Search for Another Location

Airport or City:

Trip Planner

Search our weather history database for the weather conditions in past years. The results will help you decide how hot, cold, wet, or windy it might be!

Date:

Astronomy

Jun. 12, 2012 Rise Set
Actual Time 5:53 AM EDT 8:58 PM EDT
Civil Twilight 5:19 AM EDT 9:31 PM EDT
Nautical Twilight 4:37 AM EDT 10:14 PM EDT
Astronomical Twilight 3:46 AM EDT 11:04 PM EDT
Moon 1:41 AM EDT (6/12) 2:43 PM EDT (6/12)
Length of Visible Light 16h 11m
Length of Day
15h 05m
Last Quarter, 38% of the Moon is Illuminated
Jun 12
Last Quarter
Jun 19
New
Jun 26
First Quarter
Jul 3
Full
Jul 10
Last Quarter

Hourly Weather History & Observations

Time (EDT) Temp. Heat Index Dew Point Humidity Pressure Visibility Wind Dir Wind Speed Gust Speed Precip Events Conditions
12:51 AM 70.0 °F - 66.9 °F 90% 29.91 in 4.0 mi South 8.1 mph - N/A   Overcast
1:51 AM 70.0 °F - 66.0 °F 87% 29.90 in 6.0 mi SSW 8.1 mph - N/A   Overcast
2:51 AM 69.1 °F - 66.0 °F 90% 29.89 in 4.0 mi SW 9.2 mph - N/A   Overcast
3:51 AM 68.0 °F - 64.9 °F 90% 29.87 in 3.0 mi SSW 4.6 mph - N/A   Overcast
3:58 AM 68.0 °F - 64.4 °F 88% 29.89 in 2.0 mi SW 5.8 mph - N/A   Overcast
4:51 AM 69.1 °F - 66.0 °F 90% 29.87 in 2.0 mi SW 9.2 mph - N/A   Overcast
5:51 AM 69.1 °F - 66.0 °F 90% 29.88 in 2.0 mi SSW 6.9 mph - N/A   Overcast
6:51 AM 69.1 °F - 66.0 °F 90% 29.89 in 2.0 mi SSW 6.9 mph - N/A   Overcast
7:25 AM 69.8 °F - 66.2 °F 88% 29.91 in 3.0 mi SW 10.4 mph - N/A   Overcast
7:51 AM 70.0 °F - 66.0 °F 87% 29.89 in 3.0 mi SW 6.9 mph - 0.01 in Rain Light Rain
8:27 AM 71.6 °F - 66.2 °F 83% 29.91 in 3.0 mi SW 8.1 mph - 0.00 in   Overcast
8:51 AM 72.0 °F - 66.9 °F 84% 29.88 in 3.0 mi SW 9.2 mph - 0.00 in   Haze
9:51 AM 73.9 °F - 66.9 °F 79% 29.88 in 4.0 mi SW 8.1 mph - N/A   Haze
10:51 AM 77.0 °F - 66.0 °F 69% 29.87 in 5.0 mi SW 6.9 mph - N/A   Haze
11:51 AM 78.1 °F - 66.0 °F 66% 29.87 in 5.0 mi West 6.9 mph - N/A   Haze
12:51 PM 82.0 °F 83.8 °F 64.9 °F 56% 29.87 in 7.0 mi WNW 8.1 mph - N/A   Mostly Cloudy
1:51 PM 84.9 °F 85.0 °F 61.0 °F 44% 29.86 in 10.0 mi West 11.5 mph 21.9 mph N/A   Mostly Cloudy
2:51 PM 87.1 °F 87.0 °F 61.0 °F 41% 29.85 in 10.0 mi West 12.7 mph 25.3 mph N/A   Mostly Cloudy
3:51 PM 86.0 °F 85.4 °F 59.0 °F 40% 29.84 in 10.0 mi WNW 17.3 mph 24.2 mph N/A   Mostly Cloudy
4:51 PM 86.0 °F 84.9 °F 57.0 °F 37% 29.84 in 10.0 mi NW 13.8 mph 23.0 mph N/A   Mostly Cloudy
5:51 PM 82.0 °F 81.7 °F 57.0 °F 42% 29.86 in 10.0 mi NNW 16.1 mph 23.0 mph N/A   Mostly Cloudy
6:51 PM 80.1 °F - 52.0 °F 38% 29.87 in 10.0 mi NNW 19.6 mph 24.2 mph N/A   Scattered Clouds
7:51 PM 77.0 °F - 48.0 °F 36% 29.90 in 10.0 mi NNW 16.1 mph 20.7 mph N/A   Scattered Clouds
8:51 PM 72.0 °F - 44.1 °F 37% 29.93 in 10.0 mi NW 10.4 mph - N/A   Scattered Clouds
9:51 PM 70.0 °F - 46.0 °F 42% 29.96 in 10.0 mi North 10.4 mph - N/A   Scattered Clouds
10:51 PM 68.0 °F - 53.1 °F 59% 29.99 in 10.0 mi NNE 16.1 mph - N/A   Scattered Clouds
11:51 PM 66.0 °F - 50.0 °F 56% 30.02 in 10.0 mi NNE 12.7 mph - N/A   Partly Cloudy